Simultaneous Nadir Overpasses (SNOs) Predictions

Prediction of SNOs between METOP-C and LANDSAT-8 Satellite Orbit:

Table of predicted SNOs for the next 14.0 days since TLE Epoch: 2/8/2020
Index Date (METOP-C) Time (METOP-C) Lat,Lon (METOP-C) SZA (METOP-C ) Date (LANDSAT-8) Time (LANDSAT-8) Lat,Lon (LANDSAT-8) SZA (LANDSAT-8 ) Distance(km) Time Diff (sec)
1 02/10/2020 01:45:10 81.06,-167.80 97.14 02/10/2020 01:45:25 81.06,-167.63 97.17 2.96 15
2 02/10/2020 02:35:48 -81.10, 0.87 82.71 02/10/2020 02:34:50 -81.10, 0.68 82.75 3.19 58
3 02/12/2020 21:19:25 81.07,-101.03 96.26 02/12/2020 21:19:40 81.06,-101.18 96.25 2.72 15
4 02/12/2020 22:10:05 -81.09, 66.91 83.68 02/12/2020 22:09:06 -81.08, 66.80 83.72 2.08 59
5 02/15/2020 16:53:41 81.07, -34.63 95.31 02/15/2020 16:53:55 81.07, -34.65 95.32 0.22 14
6 02/15/2020 17:44:21 -81.09, 133.33 84.63 02/15/2020 17:43:21 -81.09, 133.36 84.65 0.67 60
7 02/18/2020 12:27:55 81.08, 32.14 94.38 02/18/2020 12:28:09 81.08, 31.97 94.37 2.93 14
8 02/18/2020 13:18:36 -81.09,-160.26 85.60 02/18/2020 13:17:36 -81.08,-160.36 85.64 1.76 60
9 02/21/2020 08:02:12 81.06, 98.18 93.34 02/21/2020 08:02:25 81.07, 98.32 93.36 2.63 13




NCC Satellite Simultaneous Nadir Overpasses (SNOs) Prediction Service
